[[{"header":{"parameterUnit":"m.s-1","parameterCategory":1,"la1":30.2991,"la2":30.254,"lo1":-89.0895,"lo2":-89.0444,"dy":0.0017,"dx":0.0017,"nx":28,"ny":28,"refTime":"2023-10-19T03:00:00:Z","depth":0,"parameterNumber":2,"parameterNumberName":"U-component_of_WINDS"},"data":[0,0,0,0,0,0,0,0,0,0,0,0,0,0,0,0,0,0,0,0,0,0,0,0,0,0,0,0,0,0,0,0,0,0,0,0,0,0,0,0,0,0,0,0,0,0,0,0,0,0,0,0,0,0,0,0,0,0,3.1454,3.1455,0,3.1602,3.1604,3.1606,3.1583,3.1581,3.1578,3.1576,3.173,3.1736,3.1743,0,0,0,0,0,0,0,0,0,0,0,0,0,3.1154,3.116,3.1453,3.1455,3.1457,3.1602,3.1604,3.1606,3.1584,3.1581,3.1578,3.1575,3.1728,3.1736,3.1743,0,0,0,0,0,0,0,0,0,0,0,0,0,3.1292,3.1162,3.1453,3.1463,3.1466,3.1602,3.1604,3.1607,3.1584,3.1581,3.1577,3.1573,3.1725,3.1735,3.1744,3.188,0,0,3.1774,3.1778,0,0,0,0,0,0,0,0,3.1284,3.1303,3.146,3.1463,3.1466,3.157,3.1555,3.1699,3.1585,3.1539,3.1576,3.1571,3.168,3.1693,3.173,3.1887,3.1894,3.1775,3.1781,3.1785,3.1788,0,0,0,0,0,0,0,3.1274,3.1296,3.1512,3.1462,3.1466,3.1462,3.1477,3.1582,3.1629,3.1543,3.1542,3.156,3.1681,3.172,3.1733,3.1896,3.1775,3.1783,3.1789,3.1793,3.2178,3.2182,0,0,0,0,0,0,3.1262,3.1288,3.1508,3.1517,3.1364,3.1471,3.1488,3.1541,3.1628,3.1638,3.1563,3.1558,3.1706,3.1722,3.1738,3.1906,3.1785,3.1794,3.18,3.2173,3.2179,3.2184,0,0,0,0,0,0,3.1255,3.1281,3.1502,3.1403,3.143,3.148,3.1539,3.1546,3.1585,3.1643,3.1651,3.1594,3.1703,3.1725,3.1846,3.1911,3.1798,3.1807,3.2168,3.2175,3.2181,3.2241,0,0,0,0,0,0,3.1247,3.1279,3.133,3.1404,3.1436,3.1606,3.1543,3.1551,3.1601,3.1597,3.1675,3.1684,3.1702,3.1832,3.1856,3.1922,3.1815,3.2163,3.2171,3.2179,3.2233,3.2248,3.2261,0,0,0,0,0,3.1236,3.134,3.1333,3.1359,3.15,3.1609,3.1628,3.1646,3.1607,3.1659,3.1697,3.1681,3.19,3.1844,3.1871,3.1942,3.2159,3.2169,3.2178,3.2227,3.2245,3.2261,0,0,0,0,0,0,3.1272,3.135,3.1342,3.1473,3.1535,3.1605,3.1672,3.1664,3.1739,3.1731,3.1752,3.177,3.1893,3.1929,3.1866,3.208,3.2024,3.204,3.2052,3.207,3.2084,3.2073,3.1823,0,0,0,0,0,3.1296,3.1377,3.1441,3.155,3.1581,3.1622,3.167,3.1679,3.1744,3.177,3.1816,3.1881,3.1965,3.2019,3.2099,3.2238,3.2257,3.23,3.2315,3.2326,3.234,3.242,3.2441,3.2216,3.2216,3.2216,0,0,3.1344,3.1397,3.1447,3.1559,3.1607,3.1693,3.1643,3.1735,3.18,3.1784,3.1902,3.1939,3.2012,3.2144,3.2205,3.2178,3.2406,3.2339,3.2347,3.2355,3.2432,3.2454,3.2473,3.2223,3.2222,3.2221,0,0,3.1477,3.1524,3.1622,3.1672,3.1748,3.1774,3.1798,3.187,3.1895,3.2013,3.2004,3.2082,3.2225,3.2279,3.2325,3.2483,3.2472,3.2508,3.2583,3.2661,3.2679,3.2694,3.2754,3.2774,3.2521,3.2522,3.2522,0,3.1528,3.1656,3.1673,3.1767,3.1818,3.1809,3.191,3.1958,3.2056,3.2092,3.2061,3.2243,3.2291,3.2437,3.2476,3.2513,3.2543,3.2499,3.2674,3.2691,3.2706,3.2762,3.2784,3.2526,3.2525,3.2525,3.2524,0,3.1717,3.1806,3.1876,3.1971,3.203,3.2127,3.2161,3.2219,3.2224,3.2255,3.2378,3.2436,3.253,3.2565,3.257,3.2714,3.2695,3.2669,3.2614,3.2731,3.2785,3.2806,3.2532,3.253,3.2529,3.2528,0,0,3.1874,3.1981,3.2006,3.2051,3.2135,3.2205,3.2303,3.2394,3.2445,3.2514,3.2598,3.2721,3.2699,3.2751,3.2763,3.2831,3.2957,3.2798,3.28,3.2827,3.3122,3.3142,3.3167,3.295,3.2954,3.2958,3.3117,0,3.2017,3.2189,3.221,3.2364,3.2449,3.2443,3.2529,3.2591,3.2623,3.2701,3.2736,3.2824,3.2786,3.2819,3.2886,3.2927,3.3017,3.2916,3.3031,3.3035,3.3014,3.3194,3.3215,3.3362,3.3138,3.3141,3.3144,0,3.2206,3.2281,3.2444,3.252,3.2556,3.2632,3.272,3.2793,3.2865,3.2884,3.2945,3.2949,3.3053,3.2993,3.3139,3.307,3.3119,3.3147,3.3153,3.3165,3.3097,3.3214,3.341,3.3432,3.3176,3.3174,3.3172,0,3.2308,3.245,3.2566,3.2605,3.2695,3.275,3.279,3.2858,3.2913,3.299,3.3027,3.3115,3.3164,3.3233,3.3262,3.3215,3.3407,3.3349,3.3428,3.3427,3.3469,3.3466,3.3677,3.3498,3.3497,3.3497,3.3496,0,3.2466,3.2566,3.2614,3.2686,3.28,3.2823,3.2936,3.2974,3.3035,3.3116,3.3117,3.3193,3.3226,3.3308,3.3332,3.3451,3.3472,3.3492,3.3497,3.3493,3.3491,3.3526,3.3517,3.3503,3.3502,3.35,3.3499,0,3.2599,3.2634,3.2762,3.2838,3.286,3.2941,3.3007,3.3078,3.311,3.3213,3.3239,3.329,3.3387,3.3423,3.3541,3.3557,3.3696,3.3692,3.3672,3.3673,3.3751,3.3744,3.3994,3.4029,3.3825,3.3826,3.3828,0,3.2698,3.2775,3.2861,3.2915,3.2958,3.3045,3.3101,3.3129,3.3188,3.3278,3.3339,3.3436,3.3515,3.3672,3.3721,3.3812,3.3812,3.3893,3.3825,3.382,3.3816,3.3812,3.3821,3.3906,3.3908,3.3909,3.3911,0,3.2871,3.2885,3.2966,3.3056,3.3123,3.3195,3.3264,3.3309,3.3347,3.3414,3.3514,3.3576,3.3698,3.3795,3.389,3.3934,3.3931,3.3932,3.3955,3.3952,3.3939,3.395,3.3708,3.3926,3.3924,3.3923,3.3922,3.3922,3.2992,3.3062,3.3133,3.3225,3.328,3.3346,3.3418,3.346,3.3543,3.3645,3.3656,3.3764,3.3838,3.3965,3.4013,3.41,3.4078,3.4111,3.412,3.4129,3.4136,3.3924,3.4117,3.4117,3.4116,3.4116,3.4116,0,3.3167,3.3213,3.3297,3.3395,3.3468,3.3458,3.3535,3.3597,3.3692,3.3761,3.384,3.3956,3.4052,3.411,3.4206,3.4265,3.4266,3.4289,3.4286,3.4297,3.4148,3.4119,3.4287,3.4287,3.4287,3.4287,3.4287,3.4287,3.3266,3.3385,3.3409,3.3557,3.3603,3.3709,3.3754,3.3816,3.3871,3.4002,3.4081,3.4118,3.4184,3.4286,3.4374,3.4389,3.4425,3.4451,3.4464,3.4325,3.4307,3.429,3.4263,3.4458,3.4459,3.4606,3.4608,3.4609]},{"header":{"parameterUnit":"m.s-1","parameterCategory":1,"la1":30.2991,"la2":30.254,"lo1":-89.0895,"lo2":-89.0444,"dy":0.0017,"dx":0.0017,"nx":28,"ny":28,"refTime":"2023-10-19T03:00:00:Z","depth":0,"parameterNumber":3,"parameterNumberName":"V-component_of_WINDS"},"data":[0,0,0,0,0,0,0,0,0,0,0,0,0,0,0,0,0,0,0,0,0,0,0,0,0,0,0,0,0,0,0,0,0,0,0,0,0,0,0,0,0,0,0,0,0,0,0,0,0,0,0,0,0,0,0,0,0,0,0.4694,0.4695,0,0.4727,0.4727,0.4728,0.4741,0.4741,0.4741,0.4741,0.4775,0.4776,0.4776,0,0,0,0,0,0,0,0,0,0,0,0,0,0.4645,0.4645,0.4694,0.4695,0.4695,0.4727,0.4727,0.4728,0.4741,0.4741,0.4741,0.4741,0.4774,0.4775,0.4777,0,0,0,0,0,0,0,0,0,0,0,0,0,0.4671,0.4646,0.4694,0.4706,0.4707,0.4727,0.4727,0.4728,0.4741,0.4741,0.4741,0.4741,0.4774,0.4775,0.4777,0.4788,0,0,0.4781,0.4782,0,0,0,0,0,0,0,0,0.4669,0.4672,0.4704,0.4705,0.4706,0.473,0.4722,0.4748,0.4741,0.4728,0.4741,0.474,0.476,0.4762,0.4769,0.479,0.4791,0.4781,0.4782,0.4783,0.4783,0,0,0,0,0,0,0,0.4667,0.4671,0.4707,0.4704,0.4706,0.4709,0.4713,0.4727,0.4744,0.4729,0.473,0.4734,0.4761,0.4767,0.477,0.4792,0.4781,0.4783,0.4783,0.4784,0.4823,0.4823,0,0,0,0,0,0,0.4663,0.4669,0.4706,0.4708,0.4687,0.471,0.4714,0.4722,0.4744,0.4747,0.4734,0.4734,0.4765,0.4768,0.4771,0.4786,0.4783,0.4784,0.4785,0.4823,0.4823,0.4823,0,0,0,0,0,0,0.4662,0.4667,0.4705,0.4689,0.4694,0.4711,0.472,0.4723,0.473,0.4748,0.4751,0.4738,0.4765,0.4769,0.4784,0.4787,0.4785,0.4786,0.4823,0.4823,0.4823,0.4815,0,0,0,0,0,0,0.4661,0.4666,0.467,0.4689,0.4695,0.4717,0.472,0.4724,0.4732,0.4733,0.4752,0.4755,0.4765,0.4781,0.4785,0.4789,0.4787,0.4823,0.4823,0.4823,0.4815,0.4815,0.4815,0,0,0,0,0,0.4659,0.4667,0.4671,0.4675,0.4701,0.4717,0.4721,0.4732,0.4732,0.4737,0.4748,0.4754,0.4786,0.4783,0.4787,0.4791,0.4822,0.4823,0.4823,0.4815,0.4815,0.4815,0,0,0,0,0,0,0.4648,0.467,0.4674,0.4688,0.4701,0.4719,0.4725,0.4731,0.4744,0.4744,0.4758,0.4762,0.4776,0.4785,0.4781,0.4803,0.4805,0.4806,0.4797,0.4797,0.4797,0.4794,0.4789,0,0,0,0,0,0.4648,0.4659,0.4677,0.4688,0.4694,0.4708,0.4716,0.4724,0.4737,0.4743,0.4755,0.4768,0.4781,0.479,0.4802,0.4816,0.4821,0.4821,0.4821,0.4821,0.4822,0.483,0.483,0.4825,0.4825,0.4825,0,0,0.4646,0.4659,0.4666,0.4686,0.4696,0.4708,0.4713,0.4725,0.4734,0.4745,0.4759,0.4769,0.4785,0.4799,0.4806,0.4807,0.4824,0.4821,0.4821,0.4822,0.483,0.4831,0.4831,0.4825,0.4825,0.4825,0,0,0.465,0.4661,0.4671,0.4681,0.4697,0.4707,0.4709,0.4727,0.4734,0.4749,0.4757,0.4768,0.479,0.4801,0.4809,0.4816,0.4822,0.482,0.482,0.4827,0.4828,0.4828,0.4831,0.4832,0.4821,0.4821,0.4821,0,0.4646,0.4664,0.4675,0.4687,0.4696,0.4706,0.4716,0.4726,0.4745,0.4751,0.4752,0.478,0.4791,0.4808,0.481,0.4816,0.4819,0.4818,0.4827,0.4827,0.4828,0.483,0.4831,0.4821,0.4821,0.4821,0.4821,0,0.4659,0.4671,0.4677,0.4695,0.4705,0.4716,0.4729,0.4737,0.4744,0.4753,0.4768,0.4782,0.4798,0.4803,0.4809,0.482,0.4821,0.4824,0.4826,0.4828,0.483,0.4832,0.482,0.482,0.482,0.4821,0,0,0.4657,0.4681,0.4683,0.4692,0.471,0.472,0.4731,0.4746,0.4753,0.4766,0.4776,0.4794,0.4797,0.4806,0.4815,0.4821,0.4826,0.4824,0.4824,0.4824,0.4839,0.4837,0.4838,0.483,0.483,0.483,0.4838,0,0.4663,0.4683,0.4694,0.471,0.4722,0.4731,0.4741,0.4754,0.4763,0.4774,0.4784,0.4797,0.48,0.4806,0.4813,0.4824,0.4829,0.4824,0.484,0.484,0.4835,0.4839,0.4837,0.4843,0.4839,0.4839,0.4839,0,0.4673,0.4685,0.4703,0.4719,0.4725,0.4733,0.4748,0.4759,0.4773,0.4779,0.4789,0.4797,0.481,0.481,0.4828,0.4823,0.4831,0.4837,0.4838,0.484,0.484,0.4841,0.4845,0.4846,0.4841,0.4841,0.4841,0,0.467,0.4691,0.4704,0.4711,0.4731,0.4737,0.4745,0.476,0.4768,0.4781,0.4787,0.4801,0.4809,0.4819,0.4831,0.483,0.4847,0.4849,0.4853,0.4852,0.4856,0.4856,0.4861,0.486,0.486,0.486,0.486,0,0.4675,0.4685,0.4703,0.4711,0.4723,0.4735,0.4746,0.4756,0.4768,0.4778,0.4787,0.4797,0.4811,0.4822,0.4831,0.4844,0.4848,0.4853,0.4856,0.4853,0.4852,0.4858,0.4858,0.4861,0.4861,0.4861,0.486,0,0.4674,0.4686,0.4701,0.4718,0.4723,0.4731,0.4746,0.4754,0.4764,0.4777,0.478,0.4796,0.4809,0.4822,0.484,0.4846,0.4859,0.4862,0.4854,0.4855,0.4859,0.4858,0.4868,0.487,0.4868,0.4868,0.4868,0,0.4677,0.4685,0.4703,0.4711,0.4719,0.4731,0.4739,0.4752,0.476,0.4777,0.4783,0.4797,0.4809,0.4831,0.4843,0.4857,0.4861,0.4863,0.4863,0.4859,0.4861,0.486,0.4861,0.4863,0.4863,0.4863,0.4863,0,0.4681,0.4686,0.4698,0.4712,0.4722,0.4734,0.4746,0.4751,0.4766,0.4775,0.4789,0.4798,0.4817,0.4831,0.4846,0.4855,0.4861,0.4863,0.4865,0.4862,0.4857,0.4859,0.4854,0.4863,0.4863,0.4863,0.4863,0.4863,0.4682,0.4689,0.4703,0.4716,0.4727,0.4738,0.4746,0.4757,0.4769,0.4784,0.4791,0.4805,0.4819,0.484,0.4849,0.486,0.4861,0.4864,0.4865,0.4865,0.4864,0.4855,0.4863,0.4863,0.4863,0.4863,0.4863,0,0.4686,0.4696,0.4708,0.4724,0.4734,0.4739,0.4753,0.4761,0.4773,0.4785,0.4797,0.4813,0.4826,0.484,0.4854,0.4861,0.4864,0.4864,0.4864,0.4866,0.4862,0.486,0.4861,0.4861,0.4861,0.4861,0.4861,0.4861,0.469,0.4703,0.471,0.4728,0.4738,0.4752,0.4759,0.4769,0.4779,0.4796,0.4808,0.4816,0.4829,0.4844,0.4857,0.4861,0.4865,0.4865,0.4869,0.4866,0.4866,0.4866,0.4863,0.4866,0.4866,0.4872,0.4872,0.4872]}]]